When you browse on this site, cookies collect data to enhance your experience and personalize the content and advertising you see.
Visit our Privacy Policy to learn more. By continuing to use the site, you agree to this use of cookies and data.
  • In Austria
  • List of Countries
  • For 7 days
  • Water Temperature
  • Weather Map
  • News
  • Weather Widgets
  • user-avatar
    Login

    Hourly Weather Ureche

    Today, 19 October, Saturday

    Time Temperature Precipitation Wind Pressure Humidity
    00:00 +13°C° 0 mm 3 mps 749 mmHg 80%
    01:00 +14°C° 0 mm 3 mps 749 mmHg 77%
    02:00 +14°C° 0 mm 3 mps 749 mmHg 76%
    03:00 +14°C° 0 mm 3 mps 749 mmHg 75%
    04:00 +14°C° 0 mm 3 mps 749 mmHg 74%
    05:00 +15°C° 0 mm 2 mps 749 mmHg 73%
    06:00 +15°C° 0 mm 2 mps 749 mmHg 72%
    07:00 +15°C° 0 mm 2 mps 749 mmHg 71%
    08:00 +15°C° 0 mm 2 mps 750 mmHg 69%
    09:00 +16°C° 0 mm 2 mps 750 mmHg 66%
    10:00 +17°C° 0 mm 3 mps 750 mmHg 62%
    11:00 +18°C° 0 mm 3 mps 750 mmHg 58%
    12:00 +19°C° 0 mm 3 mps 750 mmHg 57%
    13:00 +20°C° 0 mm 3 mps 750 mmHg 56%
    14:00 +21°C° 0 mm 3 mps 750 mmHg 55%
    15:00 +20°C° 0 mm 3 mps 750 mmHg 61%
    16:00 +18°C° 0 mm 2 mps 750 mmHg 66%
    17:00 +17°C° 0 mm 2 mps 749 mmHg 72%
    18:00 +16°C° 0 mm 2 mps 750 mmHg 74%
    19:00 +16°C° 0 mm 2 mps 750 mmHg 76%
    20:00 +15°C° 0 mm 2 mps 750 mmHg 78%
    21:00 +15°C° 0 mm 2 mps 750 mmHg 79%
    22:00 +15°C° 0 mm 2 mps 750 mmHg 81%
    23:00 +15°C° 0 mm 2 mps 750 mmHg 83%

    Tomorrow, 20 October, Sunday

    Time Temperature Precipitation Wind Pressure Humidity
    00:00 +15°C° 0 mm 2 mps 750 mmHg 83%
    01:00 +15°C° 0 mm 2 mps 751 mmHg 83%
    02:00 +15°C° 0 mm 2 mps 751 mmHg 83%
    03:00 +14°C° 0 mm 2 mps 751 mmHg 84%
    04:00 +14°C° 0 mm 2 mps 751 mmHg 85%
    05:00 +13°C° 0 mm 2 mps 750 mmHg 86%
    06:00 +13°C° 0 mm 2 mps 751 mmHg 85%
    07:00 +14°C° 0 mm 2 mps 751 mmHg 83%
    08:00 +14°C° 0 mm 2 mps 751 mmHg 81%
    09:00 +14°C° 0 mm 3 mps 751 mmHg 75%
    10:00 +17°C° 0 mm 3 mps 751 mmHg 68%
    11:00 +19°C° 0 mm 3 mps 751 mmHg 62%
    12:00 +19°C° 0 mm 3 mps 751 mmHg 59%
    13:00 +20°C° 0 mm 3 mps 751 mmHg 57%
    14:00 +21°C° 0 mm 3 mps 751 mmHg 55%
    15:00 +20°C° 0 mm 3 mps 751 mmHg 60%
    16:00 +19°C° 0 mm 3 mps 751 mmHg 64%
    17:00 +18°C° 0 mm 2 mps 750 mmHg 69%
    18:00 +17°C° 0 mm 2 mps 751 mmHg 72%
    19:00 +16°C° 0 mm 3 mps 751 mmHg 75%
    20:00 +14°C° 0 mm 3 mps 751 mmHg 78%
    21:00 +14°C° 0 mm 3 mps 751 mmHg 79%
    22:00 +15°C° 0 mm 2 mps 751 mmHg 80%
    23:00 +14°C° 0 mm 2 mps 751 mmHg 82%

    Day after tomorrow, 21 October, Monday

    Time Temperature Precipitation Wind Pressure Humidity
    00:00 +14°C° 0 mm 2 mps 751 mmHg 82%
    01:00 +14°C° 0 mm 2 mps 752 mmHg 83%
    02:00 +14°C° 0 mm 2 mps 752 mmHg 83%
    03:00 +14°C° 0 mm 2 mps 752 mmHg 84%
    04:00 +13°C° 0 mm 2 mps 752 mmHg 85%
    05:00 +13°C° 0 mm 2 mps 751 mmHg 85%
    06:00 +13°C° 0 mm 2 mps 752 mmHg 84%
    07:00 +13°C° 0 mm 2 mps 752 mmHg 83%
    08:00 +14°C° 0 mm 2 mps 752 mmHg 82%
    09:00 +16°C° 0 mm 2 mps 752 mmHg 75%
    10:00 +17°C° 0 mm 2 mps 752 mmHg 69%
    11:00 +19°C° 0 mm 3 mps 752 mmHg 62%
    12:00 +20°C° 0 mm 3 mps 752 mmHg 59%
    13:00 +21°C° 0 mm 3 mps 752 mmHg 56%
    14:00 +22°C° 0 mm 3 mps 752 mmHg 54%
    15:00 +21°C° 0 mm 2 mps 751 mmHg 59%
    16:00 +19°C° 0 mm 2 mps 751 mmHg 65%
    17:00 +18°C° 0 mm 2 mps 751 mmHg 70%
    18:00 +17°C° 0 mm 2 mps 751 mmHg 72%
    19:00 +17°C° 0 mm 2 mps 752 mmHg 75%
    20:00 +16°C° 0 mm 2 mps 752 mmHg 77%
    21:00 +16°C° 0 mm 2 mps 752 mmHg 78%
    22:00 +15°C° 0 mm 2 mps 752 mmHg 79%
    23:00 +15°C° 0 mm 2 mps 752 mmHg 80%

    22 October, Tuesday

    Time Temperature Precipitation Wind Pressure Humidity
    00:00 +15°C° 0 mm 2 mps 752 mmHg 81%
    01:00 +14°C° 0 mm 1 mps 752 mmHg 83%
    02:00 +14°C° 0 mm 1 mps 752 mmHg 85%
    03:00 +13°C° 0 mm 1 mps 752 mmHg 86%
    04:00 +13°C° 0 mm 1 mps 752 mmHg 87%
    05:00 +13°C° 0 mm 1 mps 752 mmHg 88%
    06:00 +13°C° 0 mm 1 mps 753 mmHg 88%
    07:00 +13°C° 0 mm 1 mps 753 mmHg 87%
    08:00 +13°C° 0 mm 1 mps 753 mmHg 86%
    09:00 +15°C° 0 mm 1 mps 753 mmHg 80%
    10:00 +18°C° 0 mm 1 mps 753 mmHg 73%
    11:00 +19°C° 0 mm 1 mps 753 mmHg 67%
    12:00 +20°C° 0 mm 1 mps 753 mmHg 64%
    13:00 +20°C° 0 mm 2 mps 753 mmHg 62%
    14:00 +21°C° 0 mm 2 mps 753 mmHg 59%
    15:00 +19°C° 0 mm 2 mps 753 mmHg 65%
    16:00 +18°C° 0 mm 2 mps 753 mmHg 71%
    17:00 +17°C° 0 mm 2 mps 753 mmHg 77%
    18:00 +16°C° 0 mm 2 mps 753 mmHg 81%
    19:00 +15°C° 0 mm 2 mps 753 mmHg 84%
    20:00 +15°C° 0 mm 2 mps 753 mmHg 87%
    21:00 +14°C° 0 mm 2 mps 753 mmHg 89%
    22:00 +14°C° 0 mm 2 mps 753 mmHg 90%
    23:00 +13°C° 0 mm 2 mps 753 mmHg 92%

    23 October, Wednesday

    Time Temperature Precipitation Wind Pressure Humidity
    00:00 +13°C° 0 mm 1 mps 753 mmHg 92%
    01:00 +13°C° 0 mm 1 mps 753 mmHg 93%
    02:00 +12°C° 0 mm 1 mps 753 mmHg 93%
    03:00 +12°C° 0 mm 1 mps 753 mmHg 93%
    04:00 +12°C° 0 mm 1 mps 753 mmHg 93%
    05:00 +12°C° 0 mm 1 mps 753 mmHg 93%
    06:00 +12°C° 0 mm 1 mps 753 mmHg 93%
    07:00 +11°C° 0 mm 0 mps 753 mmHg 93%
    08:00 +11°C° 0 mm 0 mps 753 mmHg 93%
    09:00 +13°C° 0 mm 0 mps 753 mmHg 86%
    10:00 +16°C° 0 mm 1 mps 753 mmHg 79%
    11:00 +18°C° 0 mm 1 mps 753 mmHg 72%
    12:00 +19°C° 0 mm 1 mps 753 mmHg 69%
    13:00 +19°C° 0 mm 1 mps 753 mmHg 66%
    14:00 +20°C° 0 mm 1 mps 753 mmHg 64%
    15:00 +19°C° 0 mm 1 mps 753 mmHg 69%
    16:00 +18°C° 0 mm 1 mps 752 mmHg 74%
    17:00 +16°C° 0 mm 1 mps 752 mmHg 79%
    18:00 +15°C° 0 mm 1 mps 752 mmHg 81%
    19:00 +15°C° 0 mm 1 mps 752 mmHg 84%
    20:00 +14°C° 0 mm 1 mps 752 mmHg 86%
    21:00 +14°C° 0 mm 1 mps 752 mmHg 87%
    22:00 +13°C° 0 mm 1 mps 752 mmHg 88%
    23:00 +13°C° 0 mm 1 mps 752 mmHg 89%

    24 October, Thursday

    Time Temperature Precipitation Wind Pressure Humidity
    00:00 +13°C° 0 mm 1 mps 752 mmHg 90%
    01:00 +13°C° 0 mm 1 mps 752 mmHg 90%
    02:00 +12°C° 0 mm 0 mps 752 mmHg 90%
    03:00 +12°C° 0 mm 0 mps 752 mmHg 90%
    04:00 +12°C° 0 mm 0 mps 752 mmHg 90%
    05:00 +11°C° 0 mm 0 mps 752 mmHg 91%
    06:00 +13°C° 0 mm 1 mps 752 mmHg 91%
    07:00 +13°C° 0 mm 1 mps 752 mmHg 91%
    08:00 +13°C° 0 mm 1 mps 752 mmHg 91%
    09:00 +15°C° 0 mm 1 mps 752 mmHg 84%
    10:00 +16°C° 0 mm 1 mps 752 mmHg 78%
    11:00 +17°C° 0 mm 0 mps 752 mmHg 71%
    12:00 +20°C° 0 mm 1 mps 752 mmHg 69%
    13:00 +20°C° 0 mm 1 mps 752 mmHg 66%
    14:00 +21°C° 0 mm 1 mps 752 mmHg 64%
    15:00 +20°C° 0 mm 1 mps 752 mmHg 69%
    16:00 +18°C° 0 mm 1 mps 751 mmHg 75%
    17:00 +16°C° 0 mm 1 mps 751 mmHg 80%
    18:00 +15°C° 0 mm 2 mps 751 mmHg 82%
    19:00 +15°C° 0 mm 2 mps 751 mmHg 85%
    20:00 +14°C° 0 mm 2 mps 751 mmHg 87%
    21:00 +14°C° 0 mm 2 mps 751 mmHg 87%
    22:00 +14°C° 0 mm 2 mps 751 mmHg 88%
    23:00 +13°C° 0 mm 2 mps 751 mmHg 88%
    Show more